Погода в Кэлэраши

Румыния     44°12′30″N   27°19′05″E
темп.,
°C
ветер,
м/с
пор.,
м/с
влажн.,
%
обл.,
%
осадки,
мм/ч
давл.,
гПа
погр.,
м
27 сентября, пн
пн2700:00+17в22560 0.0 102023
03:00+16в22714 0.0 102015
06:00+15всв33824 0.0 102033
09:00+18всв34615 0.0 1020284
12:00+24всв44370 0.0 10201326
15:00+26всв33320 0.0 10181903
18:00+25всв44344 0.0 10171401
21:00+17вюв510694 0.0 1019349
28 сентября, вт
вт2800:00+15вюв37835 0.0 1019184
03:00+14в34875 0.0 102078
06:00+14в3578100 0.0 1020159
09:00+15вюв1371100 0.6 1021180
12:00+16вюв1366100 0.8 1022328
15:00+16св5656100 0.8 1022577
18:00+15ссв3564100 0.1 1022196
21:00+15с2565100 0.1 1023206
29 сентября, ср
ср2900:00+15вюв3765100 0.0 1025281
03:00+14св366538 0.0 1025208
06:00+10св347713 0.0 102564
09:00+13св47585 0.0 1026320
12:00+19всв56356 0.0 10262005
15:00+21в753230 0.0 10252280
18:00+18в56425 0.0 1025936
21:00+13в37585 0.0 1027126
30 сентября, чт
чт3000:00+12всв36675 0.0 1027103
03:00+10св35741 0.0 102772
06:00+10ссв367539 0.0 1028101
09:00+13св3763100 0.0 1028244
12:00+18всв364813 0.0 10281121
15:00+19в5647100 0.0 10271235
18:00+17в665232 0.0 10271242
21:00+13в496633 0.0 1028218
1 октября, пт
пт100:00+11всв377498 0.0 1029123
03:00+9св347479 0.0 102970
06:00+9ссв3771100 0.0 1029122
09:00+13св5957100 0.0 1029411
12:00+18всв6740100 0.0 10291782
15:00+20в783494 0.0 10271946
18:00+17в684499 0.0 10271463
21:00+13всв41062100 0.0 1028353